Location: Maccacari
(45.1333°N, 11.1333°E)
Time: 01:54:14
(UTC+00:00)

Tiros 1 despin weight - Pass Details

Date: 23 January 2021
Orbit: 593 x 642 km, 48.2° (Epoch: 07 March)

Event Time Altitude Azimuth Distance (km) Brightness Sun altitude
Rises 14:57:31 0° 250° (WSW) 2,880 ? 9.8°
Reaches altitude 10° 14:59:50 10° 251° (WSW) 1,968 ? 9.5°
Maximum altitude 15:04:22 86° 339° (NNW) 613 ? 8.9°
Drops below altitude 10° 15:08:50 10° 70° (ENE) 1,944 ? 8.3°
Sets 15:11:07 0° 71° (ENE) 2,843 ? 8.0°
